FW0639 Weather Reports


time (UTC)temp
F
wind
direction
speed
knots
gust
knots
rain 1hr
in
rain 24hr
in
rain mn
in
humidity
%
barometer
mb
20260903124847 52 7 0.0 0.0 0.00 0.00 0.00 66 1004.6
20260903123836 52 7 0.0 0.9 0.00 0.00 0.00 65 1004.6
20260903122854 52 10 0.0 1.7 0.00 0.00 0.00 64 1004.6
20260903121917 52 323 0.0 0.0 0.00 0.00 0.00 66 1004.5
20260903120918 51 18 0.0 1.7 0.00 0.00 0.00 67 1004.6
20260903115910 51 21 0.0 1.7 0.00 0.00 0.00 71 1004.5
20260903114924 51 20 0.0 0.0 0.00 0.00 0.00 71 1004.6
20260903113918 51 20 0.0 0.0 0.00 0.00 0.00 71 1004.6
20260903112859 50 25 0.0 0.0 0.00 0.00 0.00 71 1004.6
20260903111835 50 37 0.0 0.0 0.00 0.00 0.00 71 1004.7
20260903110854 50 32 0.0 0.0 0.00 0.00 0.00 71 1004.7
20260903105854 50 32 0.0 0.0 0.00 0.00 0.00 71 1004.6
20260903104848 50 32 0.0 0.0 0.00 0.00 0.00 71 1004.6
20260903103824 50 30 0.0 0.0 0.00 0.00 0.00 71 1004.7
20260903102752 49 37 0.0 0.0 0.00 0.00 0.00 72 1004.7
20260903101810 49 42 0.0 0.0 0.00 0.00 0.00 72 1004.6
20260903095554 49 43 0.0 0.9 0.00 0.00 0.00 71 1004.6
20260903094537 49 51 0.0 0.0 0.00 0.00 0.00 71 1004.7
20260903092413 49 43 0.0 0.0 0.00 0.00 0.00 71 1004.7
20260903091438 49 41 0.0 0.0 0.00 0.00 0.00 71 1004.7
20260903085409 49 43 0.0 0.9 0.00 0.00 0.00 71 1004.4
20260903084350 49 44 0.0 0.0 0.00 0.00 0.00 71 1004.3
20260903083320 49 52 0.0 0.0 0.00 0.00 0.00 71 1004.4
20260903080016 49 51 0.0 0.0 0.00 0.00 0.00 69 1004.1
20260903073832 49 47 0.0 1.7 0.00 0.00 0.00 68 1004.2
20260903072842 49 45 0.0 0.0 0.00 0.00 0.00 69 1004.2
20260903071814 49 43 0.0 1.7 0.00 0.00 0.00 69 1004.2
20260903070743 49 42 0.0 0.0 0.00 0.00 0.00 69 1003.9
20260903065729 49 43 0.0 0.0 0.00 0.00 0.00 69 1004.1
20260903064659 50 39 0.0 2.6 0.00 0.00 0.00 68 1004.1
20260903063712 50 43 0.0 0.0 0.00 0.00 0.00 67 1003.8
20260903062701 50 37 0.0 0.0 0.00 0.00 0.00 67 1004.3
20260903061643 51 25 0.0 0.0 0.00 0.00 0.00 66 1004.4
20260903060623 52 29 0.0 0.0 0.00 0.00 0.00 64 1004.5
20260903055629 52 10 0.0 0.0 0.00 0.00 0.00 63 1004.3
20260903053433 54 3 0.0 0.0 0.00 0.00 0.00 60 1004.4
20260903052421 54 359 0.0 0.0 0.00 0.00 0.00 58 1004.2
20260903051441 55 1 0.0 1.7 0.00 0.00 0.00 57 1004.2
20260903050422 55 359 0.0 1.7 0.00 0.00 0.00 56 1004.2
20260903045358 56 358 0.0 0.0 0.00 0.00 0.00 54 1004.1
20260903044343 57 355 0.0 0.0 0.00 0.00 0.00 56 1004.1
20260903043345 57 352 0.0 0.0 0.00 0.00 0.00 51 1004.0
20260903042344 58 349 0.9 2.6 0.00 0.00 0.00 49 1004.1
20260903041315 59 349 0.0 2.6 0.00 0.00 0.00 48 1004.2
20260903040332 59 347 0.0 0.0 0.00 0.00 0.00 49 1004.1
20260903035259 60 345 0.0 0.0 0.00 0.00 0.00 48 1004.1
20260903034311 60 344 0.0 0.0 0.00 0.00 0.00 46 1003.9
20260903033334 60 344 0.0 0.0 0.00 0.00 0.00 47 1003.7
20260903032339 61 344 0.0 0.9 0.00 0.00 0.00 48 1003.7
20260903031354 61 343 0.0 0.0 0.00 0.00 0.00 49 1003.6
20260903030350 62 342 0.0 0.0 0.00 0.00 0.00 48 1003.6
20260903025334 63 342 0.0 0.0 0.00 0.00 0.00 48 1003.5
20260903024351 63 343 0.0 0.0 0.00 0.00 0.00 47 1003.2
20260903022219 65 341 0.0 0.9 0.00 0.00 0.00 45 1002.8
20260903021226 65 342 0.0 0.0 0.00 0.00 0.00 45 1002.7
20260903020235 66 341 0.0 0.0 0.00 0.00 0.00 44 1002.3
20260903015236 67 340 0.0 0.0 0.00 0.00 0.00 43 1002.2
20260903014212 68 340 0.0 0.0 0.00 0.00 0.00 42 1002.0
20260903013234 69 339 0.0 3.5 0.00 0.00 0.00 41 1002.1
20260903012254 69 339 0.0 3.5 0.00 0.00 0.00 40 1002.1
20260903011306 70 339 0.0 6.1 0.00 0.00 0.00 38 1002.0
20260903010329 71 340 0.0 2.6 0.00 0.00 0.00 39 1001.9
20260903005259 72 340 0.0 6.1 0.00 0.00 0.00 36 1001.6
20260903004307 73 340 0.0 1.7 0.00 0.00 0.00 35 1001.6
20260903003315 74 341 0.0 2.6 0.00 0.00 0.00 35 1001.7
20260903002326 75 340 0.9 8.7 0.00 0.00 0.00 34 1001.4
20260903001302 76 341 1.7 16.5 0.00 0.00 0.00 30 1001.2
20260902233926 74 338 0.0 3.5 0.00 0.00 0.00 30 999.9
20260902232911 76 338 0.0 3.5 0.00 0.00 0.00 29 999.8
20260902230649 79 14 2.6 13.9 0.00 0.00 0.00 23 999.6
20260902224523 85 68 4.3 12.2 0.00 0.00 0.00 20 999.2
20260902223531 85 7 5.2 18.2 0.00 0.00 0.00 20 999.0
20260902222547 85 57 4.3 18.2 0.00 0.00 0.00 20 998.9
20260902221549 84 348 4.3 13.9 0.00 0.00 0.00 19 999.0
20260902215423 87 107 4.3 12.2 0.00 0.00 0.00 18 998.9
20260902214349 86 120 5.2 11.3 0.00 0.00 0.00 22 998.8
20260902213346 86 86 1.7 7.8 0.00 0.00 0.00 26 999.1
20260902212405 85 112 3.5 19.1 0.00 0.00 0.00 27 999.1
20260902211400 84 59 3.5 13.0 0.00 0.00 0.00 26 999.3
20260902210341 82 11 1.7 7.0 0.00 0.00 0.00 22 999.5
20260902205343 81 337 5.2 19.1 0.00 0.00 0.00 23 999.7
20260902204400 83 345 4.3 13.0 0.00 0.00 0.00 26 1000.0
20260902203418 85 93 3.5 12.2 0.00 0.00 0.00 26 999.9
20260902201306 85 92 2.6 12.2 0.00 0.00 0.00 29 1000.0
20260902195118 85 161 4.3 10.4 0.00 0.00 0.00 29 1000.3
20260902194049 85 177 2.6 10.4 0.00 0.00 0.00 29 1000.4
20260902193031 84 183 2.6 7.8 0.00 0.00 0.00 30 1000.5
20260902192017 83 185 2.6 7.8 0.00 0.00 0.00 28 1000.6
20260902191006 80 193 0.0 4.3 0.00 0.00 0.00 36 1000.6
20260902190021 80 191 0.0 2.6 0.00 0.00 0.00 40 1000.8
20260902184951 80 185 0.0 0.0 0.00 0.00 0.00 41 1001.1
20260902182829 79 323 0.0 0.0 0.00 0.00 0.00 35 1001.4
20260902175508 79 179 0.0 3.5 0.00 0.00 0.00 39 1001.9
20260902174528 78 178 0.9 4.3 0.00 0.00 0.00 36 1001.9
20260902172415 77 193 0.0 2.6 0.00 0.00 0.00 40 1002.0
20260902171415 75 184 0.0 0.9 0.00 0.00 0.00 41 1002.2
20260902170353 73 183 0.0 0.9 0.00 0.00 0.00 45 1002.3
20260902165353 72 108 0.0 6.1 0.00 0.00 0.00 50 1002.5
20260902164336 71 4 0.0 0.9 0.00 0.00 0.00 50 1002.5
20260902163303 70 61 0.0 0.9 0.00 0.00 0.00 54 1002.7
20260902162306 69 112 0.0 2.6 0.00 0.00 0.00 56 1002.9
20260902161319 68 45 0.0 0.0 0.00 0.00 0.00 55 1002.9
20260902160339 67 359 0.0 0.0 0.00 0.00 0.00 62 1003.1
20260902152006 61 191 1.7 4.3 0.00 0.00 0.00 68 1003.6
20260902151007 59 192 1.7 4.3 0.00 0.00 0.00 72 1003.7
20260902144808 58 193 0.0 0.9 0.00 0.00 0.00 74 1004.2
20260902143830 57 193 0.0 2.6 0.00 0.00 0.00 75 1004.3
20260902142835 57 193 0.0 0.0 0.00 0.00 0.00 74 1004.3
20260902140758 56 193 0.9 3.5 0.00 0.00 0.00 73 1004.2
20260902135803 55 193 0.0 0.0 0.00 0.00 0.00 76 1004.1
20260902134752 53 193 0.0 1.7 0.00 0.00 0.00 78 1004.1
20260902133753 52 193 0.0 0.0 0.00 0.00 0.00 79 1004.3
20260902132744 52 193 0.0 1.7 0.00 0.00 0.00 80 1004.3
20260902131759 51 5 0.0 0.0 0.00 0.00 0.00 80 1004.2
20260902130735 51 14 0.0 0.0 0.00 0.00 0.00 80 1004.4
20260902125741 50 14 0.0 0.0 0.00 0.00 0.00 80 1004.5